Regional Weather Roundup
Issued by NWS San Diego, CA

Home | Current Version | Previous Version | Text Only | Print | Product List | Glossary On
Versions: 1 2 3 4 5 6 7 8 9 10 11 12 13 14 15 16 17 18 19 20 21 22 23 24 25 26 27 28
000
ASUS46 KSGX 111211
RWRSGX

SAN DIEGO HOURLY WEATHER ROUNDUP
NATIONAL WEATHER SERVICE SAN DIEGO CA
400 AM PST MON DEC 11 2017

NOTE: "FAIR" INDICATES FEW OR NO CLOUDS BELOW 12,000 FEET WITH NO
SIGNIFICANT WEATHER AND/OR OBSTRUCTIONS TO VISIBILITY.

CAZ042-043-060-061-PZZ750-775-111300-

GREATER SAN DIEGO AREA

CITY           SKY/WX    TMP DP  RH WIND       PRES   REMARKS
SAN DIEGO AP   MOCLDY    56  23  27 CALM      30.15R
NATIONAL CITY    N/A     54  28  36 CALM      30.15F
CHULA VISTA      N/A     56  27  33 CALM      30.05S
IMPERIAL BEACH MOCLDY    55  19  24 E6        30.13F
BROWN FIELD    MOCLDY    64  10  12 S3        30.14S
MIRAMAR MCAS   PTCLDY    59  16  18 E6        30.13S
MONTGOMERY FLD PTCLDY    61  16  17 CALM      30.13F
GILLESPIE FLD  FAIR      48  25  40 CALM      30.14F

$$

NORTH SAN DIEGO COUNTY

CITY           SKY/WX    TMP DP  RH WIND       PRES   REMARKS
CAMP PENDLETON PTCLDY    44  24  45 W5        30.14F
OCEANSIDE AP   PTCLDY    44  27  51 E3        30.13F
OCEANSIDE HBR    N/A     57  25  29 NE7       30.15S
VISTA            N/A     58  20  23 CALM      30.11F
CARLSBAD       PTCLDY    59  20  22 CALM      30.12F
DEL MAR          N/A     60  21  22 CALM      30.14S
LA JOLLA SCRIP   N/A     68  19  15 N1        30.12S
FALLBROOK        N/A     64  15  14 NE3       30.15F
ESCONDIDO        N/A     53  26  35 W3        30.14F
SAN MARCOS       N/A     65  22  19 CALM      30.14F
POWAY            N/A     50  23  34 CALM      30.15F

$$

EAST SAN DIEGO COUNTY

CITY           SKY/WX    TMP DP  RH WIND       PRES   REMARKS
RAMONA         PTCLDY    53  14  21 E6        30.16F
SANTEE LAKES     N/A     49  20  31 CALM      30.14F
LA MESA          N/A     61  20  20 CALM      30.06F
JAMUL            N/A     58  19  22 CALM      30.14S
MT. LAGUNA OBS   N/A     47   4  16 E22       30.20S

$$

ORANGE COUNTY AND THE LOS ANGELES BASIN

CITY           SKY/WX    TMP DP  RH WIND       PRES   REMARKS
JOHN WAYNE AP  PTCLDY    55  30  38 CALM      30.14F
LAGUNA BEACH     N/A     57  21  25 CALM      30.08F
LAKE FOREST FR   N/A     64   4   9 NE3       30.00F
HUNTINGTON BCH   N/A     48  36  64 CALM      30.15F
LOS ALAMITOS   FAIR      54  25  33 CALM      30.13F
FULLERTON      PTCLDY    52  28  39 CALM      30.13F
LONG BEACH     PTCLDY    59  21  23 NW3       30.14F
L.A. AP        PTCLDY    61  16  17 NE6       30.15F
L.A. DOWNTOWN  CLEAR     60  15  17 CALM      30.14F

$$

THE INLAND EMPIRE

CITY           SKY/WX    TMP DP  RH WIND       PRES   REMARKS
CORONA         PTCLDY    47  21  35 CALM      30.18F
CHINO          PTCLDY    50  27  40 CALM      30.18F
ONTARIO        MOCLDY    53  16  23 CALM      30.17F
SAN BERNARDINO FAIR      52  13  20 CALM      30.19F
RIVERSIDE AP   PTCLDY    56  17  21 NE6       30.18S
MORENO VALLEY    N/A     63  17  17 E3        28.30F
MARCH ARB      PTCLDY    46   9  21 CALM      30.19F
HORSETHIEF CYN   N/A     59   0   9 NW5       30.19S
PERRIS           N/A     53  24  31 CALM      30.15S
HEMET EAST       N/A     57   9  15 CALM      30.22F
FRENCH VALLEY  FAIR      50  14  23 NE5       30.19F
TEMECULA         N/A     56  24  28 W1        30.23F

$$

SAN BERNARDINO AND RIVERSIDE COUNTY MOUNTAINS

CITY           SKY/WX    TMP DP  RH WIND       PRES   REMARKS
BIG BEAR AP    PTCLDY    27   0  31 CALM      30.39F
ANGELUS OAKS     N/A     43   8  23 CALM      30.20F

$$

SOUTHERN DESERT INCLUDING THE COACHELLA VALLEY

CITY           SKY/WX    TMP DP  RH WIND       PRES   REMARKS
PALM SPRINGS   MOCLDY    63   9  12 NW5       30.22S
THOUSAND PALMS   N/A     57   8  14 N2        30.17F
PALM DESERT      N/A     52  32  47 CALM      31.57R
THERMAL        CLOUDY    46  27  47 CALM      30.18S
BLYTHE         CLOUDY    52  11  19 CALM      30.22F
IMPERIAL AP    CLOUDY    52  22  30 SW3       30.17S
EL CENTRO NAS  CLOUDY    52  13  21 W6        30.19S
YUMA AZ        CLOUDY    60  15  17 NE6       30.16F

$$

UPPER DESERT

CITY           SKY/WX    TMP DP  RH WIND       PRES   REMARKS
HESPERIA         N/A     40   3  21 CALM      30.48S
APPLE VALLEY     N/A     27  13  56 SW1       30.41S
PALMDALE       PTCLDY    34   7  32 S10       30.33F WCI  26
LANCASTER      PTCLDY    27  -4  26 NW5       30.33F WCI  22
EDWARDS AFB    MOCLDY    31  -5  20 CALM      30.31F
DAGGETT        MOCLDY    35  -3  19 CALM      30.31F
29 PALMS N     MOCLDY    44  -3  14 NW7       30.36F
NEEDLES        MOCLDY    59   5  11 N10       30.28F

$$

REGIONAL REPORTS

CITY           SKY/WX    TMP DP  RH WIND       PRES   REMARKS
SANTA BARBARA  CLOUDY    43  27  53 CALM      30.15F HAZE
SANDBERG       PTCLDY    53  -8   8 E20       30.33F
LAS VEGAS NV   MOCLDY    43   3  19 S7        30.37S
PHOENIX AZ     CLOUDY    60  13  15 E5        30.20F
TIJUANA        MOCLDY    57  10  15 CALM      30.16S
ENSENADA NW      N/A     70  32  24 CALM      30.06S

$$

OFFSHORE ISLANDS

CITY           SKY/WX    TMP DP  RH WIND       PRES   REMARKS
CATALINA ARPT  PTCLDY    66   9  10 E6        30.19F
SAN NICOLAS IS PTCLDY    65  32  29 W6        30.15S

$$

MARINE AND OFFSHORE BUOY REPORTS

STATION/POSITION SKY/WX   TEMP    WIND        PRES    VSBY  SWELL
                          AIR SEA DIR/SP/G                  HT/PER/DIR
                          (F)     (DEG/KT/KT) (MB)    (MI)  (FT/S/D)
TANNER BANKS               65 62              1019.9
S CLEMENTE BASIN           65 63   10/  4/  6 1020.1F         5/260/13
SAN NICOLAS IS.               62                N/A           3/300/12
SO. S. ROSA ISLA           62 60   70/  4/  4 1020.5F         5/280/11
W. S. BARBARA CH           65 60   30/  2/  6 1020.6
M. S. BARBARA CH           65 60  170/  2/  2 1021.6
S. MONICA BASIN               61   60/  2/  4 1020.2
S PEDRO CHANNEL               62                N/A           2/250/13
CMP PENDLETON NS              62                N/A           2/220/14
OCEANSIDE OFFSHR              63                N/A           2/210/14
TORREY PINES OTR              62                N/A           2/200/14
SAN DIEGO BAY                 65              1020.9R
POINT LOMA SOUTH              65                N/A           3/250/13

$$





USA.gov is the U.S. government's official web portal to all federal, state and local government web resources and services.